DO8TBO-15 Weather Reports


Display with metric or nautical units.
time (UTC)temp
F
wind
direction
speed
MPH
gust
MPH
rain 1hr
in
rain 24hr
in
rain mn
in
humidity
%
barometer
mb
20260831165516 70 0.0 1.0 0.00 0.11 0.11 1015.1
20260831164612 70 270 0.0 4.0 0.00 0.11 0.11 1015.1
20260831163608 70 245 2.0 10.0 0.00 0.11 0.11 1015.2
20260831161602 72 0.0 2.0 0.00 0.11 0.11 1015.3
20260831160557 72 0.0 2.0 0.00 0.11 0.11 1015.1
20260831155553 72 315 1.0 4.0 0.00 0.11 0.11 1015.0
20260831154550 74 23 1.0 5.0 0.00 0.11 0.11 1015.0
20260831153546 75 25 1.0 4.0 0.00 0.11 0.11 1014.9
20260831152542 74 241 0.0 4.0 0.00 0.11 0.11 1014.8
20260831151538 72 315 2.0 5.0 0.00 0.11 0.11 1015.0
20260831150535 72 248 2.0 4.0 0.00 0.11 0.11 1015.2
20260831145531 73 325 2.0 6.0 0.00 0.11 0.11 1015.0
20260831144527 74 204 5.0 11.0 0.00 0.11 0.11 1015.0
20260831143523 74 298 5.0 13.0 0.00 0.11 0.11 1015.2
20260831142519 74 232 4.0 11.0 0.00 0.11 0.11 1015.2
20260831141516 74 211 3.0 9.0 0.00 0.11 0.11 1015.1
20260831140612 73 45 1.0 3.0 0.00 0.11 0.11 1015.3
20260831135609 72 342 1.0 6.0 0.00 0.11 0.11 1015.4
20260831134604 72 57 1.0 5.0 0.00 0.11 0.11 1015.4
20260831133601 68 223 1.0 6.0 0.00 0.11 0.11 1015.6
20260831132557 67 308 2.0 7.0 0.00 0.11 0.11 1015.8
20260831131553 67 267 1.0 8.0 0.00 0.11 0.11 1015.8
20260831130549 68 315 2.0 4.0 0.00 0.11 0.11 1015.7
20260831125545 70 326 2.0 9.0 0.00 0.11 0.11 1015.5
20260831124542 74 210 4.0 14.0 0.00 0.11 0.11 1015.1
20260831123538 76 224 4.0 10.0 0.00 0.11 0.11 1014.8
20260831122535 75 169 3.0 7.0 0.00 0.11 0.11 1014.8
20260831121531 76 263 3.0 13.0 0.00 0.11 0.11 1014.7
20260831120526 77 45 4.0 8.0 0.00 0.11 0.11 1014.8
20260831115524 77 307 3.0 8.0 0.00 0.11 0.11 1014.9
20260831114520 77 207 2.0 7.0 0.00 0.11 0.11 1015.0
20260831112612 74 215 2.0 8.0 0.00 0.11 0.11 1015.2
20260831111608 75 267 5.0 11.0 0.00 0.11 0.11 1015.3
20260831110605 76 225 3.0 8.0 0.00 0.11 0.11 1015.3
20260831105601 76 245 1.0 8.0 0.00 0.11 0.11 1015.3
20260831104557 76 338 2.0 7.0 0.00 0.11 0.11 1015.3
20260831103553 75 260 4.0 11.0 0.00 0.11 0.11 1015.3
20260831102550 72 188 2.0 9.0 0.00 0.11 0.11 1015.6
20260831101546 73 241 2.0 7.0 0.00 0.11 0.11 1015.5
20260831100542 74 225 1.0 5.0 0.00 0.11 0.11 1015.3
20260831095539 73 186 3.0 9.0 0.00 0.11 0.11 1015.5
20260831094534 72 179 2.0 7.0 0.00 0.11 0.11 1015.5
20260831093531 70 333 1.0 6.0 0.00 0.11 0.11 1015.5
20260831092527 69 192 1.0 4.0 0.00 0.11 0.11 1015.6
20260831091523 70 15 1.0 6.0 0.00 0.11 0.11 1015.6
20260831090519 71 225 3.0 7.0 0.00 0.11 0.11 1015.5
20260831085516 71 196 3.0 11.0 0.00 0.11 0.11 1015.5
20260831084612 71 296 3.0 8.0 0.00 0.11 0.11 1015.5
20260831083608 69 225 3.0 8.0 0.00 0.11 0.11 1015.4
20260831082604 70 293 2.0 10.0 0.00 0.11 0.11 1015.3
20260831081601 69 261 1.0 6.0 0.00 0.11 0.11 1015.2
20260831080557 69 45 2.0 3.0 0.00 0.11 0.11 1015.1
20260831075554 69 335 1.0 4.0 0.00 0.11 0.11 1015.1
20260831074550 68 236 1.0 6.0 0.00 0.11 0.11 1015.0
20260831073547 66 135 1.0 6.0 0.00 0.11 0.11 1014.9
20260831072542 66 321 1.0 6.0 0.00 0.11 0.11 1014.9
20260831071538 65 258 0.0 5.0 0.00 0.11 0.11 1014.8
20260831070535 64 135 3.0 5.0 0.00 0.11 0.11 1014.7
20260831065531 63 232 3.0 8.0 0.00 0.11 0.11 1014.5
20260831064528 63 253 1.0 5.0 0.00 0.11 0.11 1014.6
20260831063523 63 207 1.0 3.0 0.00 0.11 0.11 1014.4
20260831062520 62 0.0 0.0 0.00 0.11 0.11 1014.3
20260831061516 62 0.0 0.0 0.00 0.11 0.11 1014.2
20260831060613 61 0.0 0.0 0.00 0.11 0.11 1014.2
20260831055609 61 0.0 2.0 0.00 0.11 0.11 1014.1
20260831054605 61 0.0 0.0 0.00 0.11 0.11 1014.0
20260831053602 61 0.0 0.0 0.01 0.11 0.11 1013.8
20260831052558 60 0.0 0.0 0.02 0.11 0.11 1013.7
20260831051554 60 0.0 0.0 0.02 0.11 0.11 1013.7
20260831050550 60 0.0 0.0 0.02 0.11 0.11 1013.7
20260831045547 60 0.0 0.0 0.02 0.11 0.11 1013.4
20260831044543 60 0.0 0.0 0.02 0.11 0.11 1013.5
20260831043539 60 0.0 0.0 0.01 0.09 0.09 1013.4
20260831042536 60 0.0 0.0 0.00 0.08 0.08 1013.5
20260831041532 60 0.0 0.0 0.00 0.08 0.08 1013.3
20260831040558 59 0.0 0.0 0.02 0.08 0.08 1013.1
20260831035554 59 0.0 0.0 0.04 0.08 0.08 1013.1
20260831034551 59 0.0 1.0 0.07 0.08 0.08 1013.0
20260831033547 59 0.0 0.0 0.08 0.08 0.08 1013.2
20260831032543 59 0.0 0.0 0.08 0.08 0.08 1013.4
20260831031540 59 0.0 2.0 0.08 0.08 0.08 1013.3
20260831030536 59 0.0 0.0 0.06 0.06 0.06 1013.5
20260831025533 59 0 1.0 4.0 0.05 0.05 0.05 1013.7
20260831024529 59 336 2.0 7.0 0.01 0.01 0.01 1013.6
20260831023525 59 0.0 0.0 0.00 0.00 0.00 1013.1
20260831022521 59 0.0 0.0 0.00 0.00 0.00 1012.8
20260831021518 59 0.0 0.0 0.00 0.00 0.00 1012.7
20260831020614 58 0.0 0.0 0.00 0.00 0.00 1012.7
20260831015610 58 0.0 0.0 0.00 0.00 0.00 1012.7
20260831014607 58 0.0 1.0 0.00 0.00 0.00 1012.7
20260831013603 58 0.0 0.0 0.00 0.00 0.00 1012.8
20260831012559 58 0.0 0.0 0.00 0.00 0.00 1012.9
20260831011555 57 0.0 0.0 0.00 0.00 0.00 1013.0
20260831010551 57 0.0 0.0 0.00 0.00 0.00 1013.2
20260831005548 57 0.0 1.0 0.00 0.00 0.00 1013.3
20260831004544 57 0.0 0.0 0.00 0.00 0.00 1013.2
20260831003540 57 0.0 0.0 0.00 0.00 0.00 1013.4
20260831002537 57 0.0 0.0 0.00 0.00 0.00 1013.6
20260831001534 57 0.0 0.0 0.00 0.00 0.00 1013.6
20260831000529 57 0.0 0.0 0.00 0.00 0.00 1013.6
20260830235526 57 0.0 0.0 0.00 0.00 0.00 1013.7
20260830234522 57 0.0 0.0 0.00 0.00 0.00 1013.7
20260830233518 57 0.0 0.0 0.00 0.00 0.00 1013.7
20260830232615 57 0.0 0.0 0.00 0.00 0.00 1013.8
20260830231611 58 0.0 0.0 0.00 0.00 0.00 1014.0
20260830230607 58 0.0 0.0 0.00 0.00 0.00 1014.1
20260830225604 58 0.0 0.0 0.00 0.00 0.00 1014.4
20260830224600 58 0.0 0.0 0.00 0.00 0.00 1014.4
20260830223556 58 0.0 0.0 0.00 0.00 0.00 1014.4
20260830222552 58 0.0 0.0 0.00 0.00 0.00 1014.5
20260830221548 59 0.0 0.0 0.00 0.00 0.00 1014.5
20260830220544 60 0.0 0.0 0.00 0.00 0.00 1014.5
20260830215540 60 0.0 0.0 0.00 0.00 0.00 1014.6
20260830214536 60 0.0 0.0 0.00 0.00 0.00 1014.6
20260830213533 60 0.0 0.0 0.00 0.00 0.00 1014.5
20260830212529 60 0.0 0.0 0.00 0.00 0.00 1014.4
20260830211525 61 0.0 0.0 0.00 0.00 0.00 1014.3
20260830210522 61 0.0 0.0 0.00 0.00 0.00 1014.4
20260830205517 61 0.0 0.0 0.00 0.00 0.00 1014.4
20260830204614 61 0.0 0.0 0.00 0.00 0.00 1014.5
20260830203610 62 0.0 0.0 0.00 0.00 0.00 1014.5
20260830201602 62 0.0 0.0 0.00 0.00 0.00 1014.5
20260830200559 63 0.0 0.0 0.00 0.00 0.00 1014.5
20260830195555 63 0.0 0.0 0.00 0.00 0.00 1014.5
20260830194551 64 0.0 0.0 0.00 0.00 0.00 1014.5
20260830193547 64 0.0 0.0 0.00 0.00 0.00 1014.5
20260830192543 65 0.0 0.0 0.00 0.00 0.00 1014.5
20260830191539 66 0.0 0.0 0.00 0.00 0.00 1014.5
20260830190536 66 0.0 0.0 0.00 0.00 0.00 1014.4
20260830185532 67 0.0 0.0 0.00 0.00 0.00 1014.3
20260830184528 68 0.0 1.0 0.00 0.00 0.00 1014.3
20260830183524 69 0.0 0.0 0.00 0.00 0.00 1014.0
20260830181517 71 0.0 0.0 0.00 0.00 0.00 1013.8
20260830180613 72 0.0 0.0 0.00 0.00 0.00 1013.6
20260830175609 73 0.0 0.0 0.00 0.00 0.00 1013.5
20260830174606 75 0.0 0.0 0.00 0.00 0.00 1013.5
20260830173602 76 0.0 1.0 0.00 0.00 0.00 1013.5
20260830172558 76 0.0 0.0 0.00 0.00 0.00 1013.5
20260830171554 78 0.0 0.0 0.00 0.00 0.00 1013.5
20260830170551 78 0.0 0.0 0.00 0.00 0.00 1013.4